Location: Acton
(51.4942°N, 0.2232°W)
Time: 13:50:10
(UTC+00:00)

Okean 1-7 Rocket - Pass Details

Date: 17 January 2021
Orbit: 615 x 650 km, 82.5° (Epoch: 28 February)

Event Time Altitude Azimuth Distance (km) Brightness Sun altitude
Rises 19:46:41 0° 216° (SW) 2,943 7.4 -30.7°
Reaches altitude 10° 19:49:07 10° 227° (SW) 2,043 6.6 -31.1°
Maximum altitude 19:53:12 32° 290° (WNW) 1,122 5.3 -31.7°
Enters shadow 19:53:48 31° 306° (NW) 1,152 5.3 -31.8°
